Location: 5810 Zion Rd, Cleves, OH 45002, USA
(39.1922°N, 84.7113°W)
Time: 05:07:40
(UTC-05:00)

Vanguard 3 - Pass Details

Date: 22 December 2019
Orbit: 508 x 3263 km, 33.3° (Epoch: 17 January)

Event Time Altitude Azimuth Distance (km) Brightness Sun altitude
Rises 12:22:22 0° 261° (W) 4,598 11.1 27.3°
Reaches altitude 10° 12:27:05 10° 239° (WSW) 4,147 11.2 27.3°
Maximum altitude 12:32:39 15° 210° (SSW) 4,325 12.0 27.4°
Drops below altitude 10° 12:39:33 10° 182° (S) 5,308 13.1 27.4°
Sets 12:47:29 0° 164° (SSE) 6,832 13.0 27.3°
